Weather reports worldwide

Advertisment
Usk, United Kingdom (99176): temperature & dewpoint: 23.09.2020 03:00:00 - 29.09.2020 03:00:00 (BST)Usk, United Kingdom (99176): temperature -20cm & temperature -100cm: 23.09.2020 03:00:00 - 29.09.2020 03:00:00 (BST)Usk, United Kingdom (99176): precipitation: 23.09.2020 03:00:00 - 29.09.2020 03:00:00 (BST)
Date & Time tt [°C] td [°C] tt -20cm [°C] tt -100cm [°C] rr [mm]
29.09.2020 03:00:00 - - - - -
29.09.2020 02:00:00 13,6 12,2 - - 0,0
29.09.2020 01:00:00 14,5 12,5 - - 0,0
29.09.2020 00:00:00 15,0 12,9 - - -
28.09.2020 23:00:00 14,7 14,1 - - 0,0
28.09.2020 22:00:00 15,1 14,6 - - 0,0
28.09.2020 21:00:00 15,3 14,8 - - 0,0
28.09.2020 20:00:00 15,6 15,1 - - 0,0
28.09.2020 19:00:00 15,5 14,9 - - 0,0
28.09.2020 18:00:00 16,0 14,8 - - -
28.09.2020 17:00:00 16,5 13,9 - - -
28.09.2020 16:00:00 16,5 13,3 - - 0,0
28.09.2020 15:00:00 16,4 13,3 - - 0,0
28.09.2020 14:00:00 16,7 13,5 - - 0,0
28.09.2020 13:00:00 16,1 12,2 - - 0,0
28.09.2020 12:00:00 13,7 10,0 - - -
28.09.2020 11:00:00 10,8 7,9 - - 0,0
28.09.2020 10:00:00 6,8 6,5 13,2 15,5 0,0
28.09.2020 09:00:00 4,5 4,4 - - 0,0
28.09.2020 08:00:00 2,2 2,0 - - 0,0
28.09.2020 07:00:00 1,6 1,3 - - 0,0
28.09.2020 06:00:00 1,5 1,1 - - -
28.09.2020 05:00:00 2,0 1,6 - - 0,0
28.09.2020 04:00:00 2,2 1,8 - - -
28.09.2020 03:00:00 2,8 2,4 - - 0,0
28.09.2020 02:00:00 3,3 2,7 - - 0,0
28.09.2020 01:00:00 4,3 3,7 - - 0,0
28.09.2020 00:00:00 5,5 4,7 - - 0,0
27.09.2020 23:00:00 6,9 5,6 - - 0,0
27.09.2020 22:00:00 8,8 6,7 - - 0,0
27.09.2020 21:00:00 8,7 6,4 - - -
27.09.2020 20:00:00 10,0 6,4 - - 0,0
27.09.2020 19:00:00 12,6 6,2 - - 0,0
27.09.2020 18:00:00 15,7 3,9 - - -
27.09.2020 17:00:00 17,4 4,1 - - -
27.09.2020 16:00:00 17,5 3,7 - - 0,0
27.09.2020 15:00:00 17,6 3,0 - - 0,0
27.09.2020 14:00:00 16,5 2,7 - - 0,0
27.09.2020 13:00:00 14,9 5,0 - - 0,0
27.09.2020 12:00:00 13,8 6,3 - - 0,0
27.09.2020 11:00:00 11,5 5,6 - - 0,0
27.09.2020 10:00:00 10,2 5,6 - - -
27.09.2020 09:00:00 9,0 6,7 - - -
27.09.2020 08:00:00 6,0 4,9 - - 0,0
27.09.2020 07:00:00 4,0 3,5 - - 0,0
27.09.2020 06:00:00 4,0 3,3 - - -
27.09.2020 05:00:00 3,8 3,2 - - 0,0
27.09.2020 04:00:00 4,0 3,2 - - 0,0
27.09.2020 03:00:00 4,7 3,4 - - 0,0
27.09.2020 02:00:00 6,1 4,1 - - 0,0
27.09.2020 01:00:00 8,0 4,0 - - 0,0
27.09.2020 00:00:00 9,7 4,0 - - 0,0
26.09.2020 23:00:00 10,4 4,6 - - 0,0
26.09.2020 22:00:00 10,3 4,4 - - -
26.09.2020 21:00:00 11,3 4,6 - - 0,0
26.09.2020 20:00:00 11,0 4,5 - - 0,0
26.09.2020 19:00:00 11,4 3,7 - - 0,0
26.09.2020 18:00:00 12,8 3,0 - - 0,0
26.09.2020 17:00:00 13,7 3,4 - - -
26.09.2020 16:00:00 14,1 3,1 - - 0,0
26.09.2020 15:00:00 13,7 1,3 - - 0,0
26.09.2020 14:00:00 13,5 2,6 - - 0,0
26.09.2020 13:00:00 12,5 0,9 - - 0,0
26.09.2020 12:00:00 12,5 2,5 - - 0,0
26.09.2020 11:00:00 11,3 2,2 - - 0,0
26.09.2020 10:00:00 10,4 3,3 - - 0,0
26.09.2020 09:00:00 7,2 4,8 - - 0,0
26.09.2020 08:00:00 3,8 3,1 - - 0,0
26.09.2020 07:00:00 4,1 3,0 - - 0,0
26.09.2020 06:00:00 4,4 3,1 - - 0,0
26.09.2020 05:00:00 6,1 3,4 - - 0,0
26.09.2020 04:00:00 6,9 3,6 - - 0,0
26.09.2020 03:00:00 7,9 3,6 - - 0,0
26.09.2020 02:00:00 6,7 3,4 - - 0,0
26.09.2020 01:00:00 8,0 4,0 - - 0,0
26.09.2020 00:00:00 8,7 4,3 - - 0,0
25.09.2020 23:00:00 8,9 4,3 - - 0,0
25.09.2020 22:00:00 9,7 4,8 - - 0,0
25.09.2020 21:00:00 10,2 5,1 - - -
25.09.2020 20:00:00 11,0 4,7 - - 0,0
25.09.2020 19:00:00 12,2 4,3 - - 0,0
25.09.2020 18:00:00 13,5 4,4 - - -
25.09.2020 17:00:00 14,3 5,2 - - 0,0
25.09.2020 16:00:00 15,3 3,9 - - 0,0
25.09.2020 15:00:00 15,9 4,4 - - 0,0
25.09.2020 14:00:00 15,1 3,1 - - 0,0
25.09.2020 13:00:00 14,5 3,5 - - 0,0
25.09.2020 12:00:00 13,4 2,9 - - 0,0
25.09.2020 11:00:00 12,2 3,8 - - 0,0
25.09.2020 10:00:00 11,2 4,2 14,9 16,0 0,0
25.09.2020 09:00:00 9,9 4,7 - - 0,0
25.09.2020 08:00:00 8,3 4,9 - - -
25.09.2020 07:00:00 7,4 4,6 - - 0,0
25.09.2020 06:00:00 7,5 4,9 - - 0,0
25.09.2020 05:00:00 6,1 4,7 - - 0,0
25.09.2020 04:00:00 6,6 4,4 - - 0,0
25.09.2020 03:00:00 6,8 4,5 - - 0,0
25.09.2020 02:00:00 5,1 4,2 - - 0,0
25.09.2020 01:00:00 5,9 4,9 - - 0,0
25.09.2020 00:00:00 7,7 5,2 - - 0,0
24.09.2020 23:00:00 8,5 5,7 - - 0,0
24.09.2020 22:00:00 8,7 6,1 - - -
24.09.2020 21:00:00 8,3 6,8 - - 0,0
24.09.2020 20:00:00 7,3 6,2 - - -
24.09.2020 19:00:00 9,6 5,6 - - 0,0
24.09.2020 18:00:00 12,5 5,0 - - 0,0
24.09.2020 17:00:00 13,6 4,1 - - 0,0
24.09.2020 16:00:00 12,8 6,7 - - 0,0
24.09.2020 15:00:00 14,0 5,8 - - 0,0
24.09.2020 14:00:00 10,9 5,3 - - 0,0
24.09.2020 13:00:00 12,7 7,7 - - 0,0
24.09.2020 12:00:00 11,3 8,4 - - 0,2
24.09.2020 11:00:00 7,5 5,2 - - 1,6
24.09.2020 10:00:00 10,1 7,6 15,7 16,2 1,4
24.09.2020 09:00:00 8,8 6,6 - - 1,2
24.09.2020 08:00:00 8,7 7,3 - - 1,4
24.09.2020 07:00:00 9,0 7,4 - - 1,2
24.09.2020 06:00:00 9,8 7,7 - - 0,8
24.09.2020 05:00:00 10,4 8,8 - - -
24.09.2020 04:00:00 10,0 8,4 - - 0,6
24.09.2020 03:00:00 7,9 7,7 - - -
24.09.2020 02:00:00 6,9 6,7 - - 0,0
24.09.2020 01:00:00 5,6 5,2 - - 0,0
24.09.2020 00:00:00 6,5 6,1 - - 0,0
23.09.2020 23:00:00 6,8 5,5 - - 0,0
23.09.2020 22:00:00 7,3 6,2 - - 0,0
23.09.2020 21:00:00 9,1 7,8 - - 0,4
23.09.2020 20:00:00 9,7 7,5 - - 1,0
23.09.2020 19:00:00 11,9 8,4 - - 0,2
23.09.2020 18:00:00 13,9 7,7 - - 0,0
23.09.2020 17:00:00 14,8 7,9 - - 0,0
23.09.2020 16:00:00 16,3 8,7 - - 0,0
23.09.2020 15:00:00 16,8 9,2 - - 0,0
23.09.2020 14:00:00 16,7 10,2 - - 0,0
23.09.2020 13:00:00 15,7 12,0 - - 0,0
23.09.2020 12:00:00 14,8 12,4 - - 0,4
23.09.2020 11:00:00 14,7 13,9 - - 0,8
23.09.2020 10:00:00 14,2 13,1 16,2 16,2 0,4
23.09.2020 09:00:00 14,3 13,0 - - 0,0
23.09.2020 08:00:00 14,1 13,0 - - 0,2
23.09.2020 07:00:00 14,5 12,7 - - 0,0
23.09.2020 06:00:00 14,7 13,2 - - 0,0
23.09.2020 05:00:00 14,6 13,6 - - 0,2
23.09.2020 04:00:00 14,6 13,7 - - -
23.09.2020 03:00:00 15,3 13,3 - - 0,0

tt = temperature
td = dewpoint
tt -20cm = temperature -20cm
tt -100cm = temperature -100cm
rr = precipitation

Next stations